Courtland, AL

4:37 PM CST on December 08, 2016 (GMT -0600)
Courtland

Weather History for K9A4 - February, 2013

Change the Weather History Date:

Friday, February 8, 2013

  Actual Average (KMSL) Record (KMSL)
Temperature  
Mean Temperature 42 °F -  
Max Temperature 50 °F 50 °F 78 °F (1937)
Min Temperature 35 °F 27 °F -1 °F (1895)
Degree Days  
Heating Degree Days 22    
Moisture  
Dew Point 40 °F    
Average Humidity 85    
Maximum Humidity 100    
Minimum Humidity 62    
Precipitation  
Precipitation 0.00 in - - ()
Sea Level Pressure  
Sea Level Pressure 30.12 in    
Wind  
Wind Speed 7 mph (North)    
Max Wind Speed 18 mph    
Max Gust Speed 22 mph    
Visibility 9 miles    
Events Rain    
Averages and records for this station are not official NWS values.
T = Trace of Precipitation, MM = Missing Value Source: NWS Daily Summary

Daily Weather History Graph

Daily Weather History Graph

Search for Another Location

Airport or City:

Trip Planner

Search our weather history database for the weather conditions in past years. The results will help you decide how hot, cold, wet, or windy it might be!

Date:

Astronomy

Feb. 08, 2013 Rise Set
Actual Time 6:41 AM CST 5:26 PM CST
Civil Twilight 6:15 AM CST 5:52 PM CST
Nautical Twilight 5:45 AM CST 6:22 PM CST
Astronomical Twilight 5:16 AM CST 6:51 PM CST
Moon 5:07 AM CST 4:00 PM CST
Length of Visible Light 11h 36m
Length of Day
10h 44m
Waning Crescent, 3% of the Moon is Illuminated
Feb 8
Waning Crescent
Feb 10
New
Feb 17
First Quarter
Feb 25
Full
Mar 4
Last Quarter

Hourly Weather History & Observations

Time (CST) Temp. Windchill Dew Point Humidity Pressure Visibility Wind Dir Wind Speed Gust Speed Precip Events Conditions
12:15 AM 50.0 °F - 46.4 °F 87% 29.97 in 10.0 mi SE 5.8 mph - N/A   Overcast
12:35 AM 50.0 °F - 46.4 °F 87% 29.96 in 10.0 mi South 4.6 mph - N/A   Overcast
12:55 AM 50.0 °F - 46.4 °F 87% 29.94 in 10.0 mi SSE 6.9 mph - N/A   Mostly Cloudy
1:15 AM 46.4 °F 43.5 °F 46.4 °F 100% 29.93 in 10.0 mi South 5.8 mph - N/A   Scattered Clouds
1:35 AM 48.2 °F - 46.4 °F 93% 29.94 in 10.0 mi South 4.6 mph - N/A   Mostly Cloudy
1:55 AM 48.2 °F - 46.4 °F 93% 29.94 in 10.0 mi SSW 3.5 mph - N/A   Overcast
2:15 AM 48.2 °F - 46.4 °F 93% 29.93 in 10.0 mi South 8.1 mph - N/A   Overcast
2:35 AM 48.2 °F - 46.4 °F 93% 29.93 in 10.0 mi SSW 5.8 mph - N/A   Overcast
2:55 AM 48.2 °F - 46.4 °F 93% 29.94 in 10.0 mi SSW 9.2 mph - N/A   Overcast
3:15 AM 48.2 °F - 46.4 °F 93% 29.94 in 10.0 mi SSW 6.9 mph - N/A   Overcast
3:35 AM 48.2 °F - 46.4 °F 93% 29.95 in 10.0 mi SSW 6.9 mph - N/A   Overcast
3:55 AM 48.2 °F - 46.4 °F 93% 29.95 in 10.0 mi SSW 5.8 mph - N/A   Overcast
4:15 AM 48.2 °F - 46.4 °F 93% 29.96 in 10.0 mi WSW 3.5 mph - N/A   Overcast
4:35 AM 48.2 °F - 48.2 °F 100% 29.99 in 2.5 mi NNW 10.4 mph - N/A Rain Heavy Rain
4:55 AM 46.4 °F - 46.4 °F 100% 29.97 in 3.0 mi Calm Calm - N/A Rain Rain
5:15 AM 46.4 °F 43.5 °F 46.4 °F 100% 29.98 in 4.0 mi SSW 5.8 mph - N/A Rain Rain
5:35 AM 46.4 °F 45.2 °F 46.4 °F 100% 29.97 in 3.0 mi SSE 3.5 mph - N/A Rain Heavy Rain
5:55 AM 46.4 °F 45.2 °F 46.4 °F 100% 29.98 in 7.0 mi SSW 3.5 mph - N/A Rain Light Rain
6:15 AM 46.4 °F - 46.4 °F 100% 29.99 in 7.0 mi Calm Calm - N/A   Drizzle
6:35 AM 46.4 °F - 46.4 °F 100% 29.99 in 7.0 mi Calm Calm - N/A   Light Drizzle
6:55 AM 46.4 °F - 46.4 °F 100% 30.00 in 5.0 mi Calm Calm - N/A   Drizzle
7:15 AM 46.4 °F 45.2 °F 46.4 °F 100% 30.02 in 2.0 mi NNW 3.5 mph - N/A   Drizzle
7:35 AM 46.4 °F - 46.4 °F 100% 30.03 in 1.8 mi Calm Calm - N/A Rain Light Rain
7:55 AM 48.2 °F - 48.2 °F 100% 30.04 in 2.0 mi Calm Calm - N/A   Light Drizzle
8:15 AM 48.2 °F - 48.2 °F 100% 30.05 in 1.5 mi NNW 4.6 mph - N/A   Light Drizzle
8:35 AM 48.2 °F - 48.2 °F 100% 30.07 in 2.5 mi NNW 10.4 mph - N/A   Light Drizzle
8:55 AM 48.2 °F - 48.2 °F 100% 30.08 in 10.0 mi North 11.5 mph - N/A Rain Light Rain
9:15 AM 48.2 °F - 48.2 °F 100% 30.09 in 10.0 mi North 12.7 mph - N/A Rain Rain
9:35 AM 46.4 °F 40.7 °F 46.4 °F 100% 30.10 in 10.0 mi North 12.7 mph 19.6 mph N/A Rain Rain
9:55 AM 46.4 °F 40.4 °F 44.6 °F 93% 30.11 in 10.0 mi North 13.8 mph 21.9 mph N/A Rain Light Rain
10:15 AM 46.4 °F 41.5 °F 46.4 °F 100% 30.13 in 10.0 mi North 10.4 mph 18.4 mph N/A   Drizzle
10:35 AM 46.4 °F 40.7 °F 46.4 °F 100% 30.13 in 10.0 mi North 12.7 mph - N/A   Overcast
10:55 AM 46.4 °F 41.1 °F 42.8 °F 87% 30.15 in 10.0 mi North 11.5 mph 20.7 mph N/A   Overcast
11:15 AM 46.4 °F 40.7 °F 44.6 °F 93% 30.15 in 10.0 mi North 12.7 mph 17.3 mph N/A   Overcast
11:35 AM 46.4 °F 40.7 °F 42.8 °F 87% 30.16 in 10.0 mi North 12.7 mph - N/A   Overcast
11:55 AM 48.2 °F - 41.0 °F 76% 30.16 in 10.0 mi North 13.8 mph 18.4 mph N/A   Overcast
12:15 PM 46.4 °F 39.2 °F 41.0 °F 81% 30.16 in 10.0 mi North 18.4 mph - N/A   Overcast
12:35 PM 48.2 °F - 41.0 °F 76% 30.17 in 10.0 mi North 13.8 mph - N/A   Overcast
12:55 PM 48.2 °F - 39.2 °F 71% 30.17 in 10.0 mi North 12.7 mph - N/A   Mostly Cloudy
1:15 PM 48.2 °F - 37.4 °F 66% 30.18 in 10.0 mi North 15.0 mph - N/A   Overcast
1:35 PM 48.2 °F - 37.4 °F 66% 30.18 in 10.0 mi North 17.3 mph - N/A   Overcast
1:55 PM 48.2 °F - 37.4 °F 66% 30.18 in 10.0 mi North 16.1 mph 20.7 mph N/A   Mostly Cloudy
2:15 PM 48.2 °F - 37.4 °F 66% 30.19 in 10.0 mi North 15.0 mph 20.7 mph N/A   Mostly Cloudy
2:35 PM 46.4 °F 41.5 °F 35.6 °F 66% 30.19 in 10.0 mi NNE 10.4 mph - N/A   Overcast
2:55 PM 46.4 °F 41.5 °F 35.6 °F 66% 30.20 in 10.0 mi North 10.4 mph 17.3 mph N/A   Overcast
3:15 PM 46.4 °F 40.1 °F 35.6 °F 66% 30.20 in 10.0 mi North 15.0 mph - N/A   Overcast
3:35 PM 46.4 °F 40.7 °F 33.8 °F 62% 30.21 in 10.0 mi NNE 12.7 mph - N/A   Scattered Clouds
3:55 PM 46.4 °F 41.9 °F 33.8 °F 62% 30.21 in 10.0 mi North 9.2 mph - N/A   Scattered Clouds
4:15 PM 44.6 °F 37.8 °F 33.8 °F 66% 30.21 in 10.0 mi North 15.0 mph - N/A   Scattered Clouds
4:35 PM 44.6 °F 38.8 °F 33.8 °F 66% 30.22 in 10.0 mi North 11.5 mph - N/A   Clear
4:55 PM 42.8 °F 37.0 °F 33.8 °F 70% 30.22 in 10.0 mi North 10.4 mph - N/A   Clear
5:15 PM 42.8 °F 38.0 °F 32.0 °F 66% 30.23 in 10.0 mi NNE 8.1 mph - N/A   Clear
5:35 PM 41.0 °F 38.0 °F 33.8 °F 76% 30.23 in 10.0 mi North 4.6 mph - N/A   Clear
6:15 PM 37.4 °F 33.8 °F 32.0 °F 81% 30.25 in 10.0 mi NW 4.6 mph - N/A   Clear
6:35 PM 35.6 °F 30.7 °F 32.0 °F 87% 30.27 in 10.0 mi NNW 5.8 mph - N/A   Mostly Cloudy
6:55 PM 39.2 °F 34.2 °F 33.8 °F 81% 30.28 in 10.0 mi NNE 6.9 mph - N/A   Mostly Cloudy
7:15 PM 39.2 °F 34.2 °F 32.0 °F 75% 30.29 in 10.0 mi North 6.9 mph - N/A   Scattered Clouds
7:35 PM 37.4 °F 32.1 °F 32.0 °F 81% 30.29 in 10.0 mi North 6.9 mph - N/A   Clear
7:55 PM 37.4 °F 34.9 °F 32.0 °F 81% 30.29 in 10.0 mi North 3.5 mph - N/A   Clear
8:15 PM 37.4 °F 32.8 °F 32.0 °F 81% 30.28 in 10.0 mi NNE 5.8 mph - N/A   Clear
8:55 PM 37.4 °F 31.4 °F 32.0 °F 81% 30.25 in 10.0 mi NE 8.1 mph - N/A   Clear
9:15 PM 37.4 °F 31.4 °F 32.0 °F 81% 30.25 in 10.0 mi ENE 8.1 mph - N/A   Clear
9:35 PM 37.4 °F 30.8 °F 32.0 °F 81% 30.27 in 10.0 mi NE 9.2 mph - N/A   Clear
9:55 PM 37.4 °F 30.3 °F 30.2 °F 75% 30.28 in 10.0 mi NNE 10.4 mph - N/A   Clear
10:15 PM 37.4 °F 31.4 °F 30.2 °F 75% 30.28 in 10.0 mi NNE 8.1 mph - N/A   Clear
10:35 PM 35.6 °F 30.7 °F 30.2 °F 81% 30.30 in 10.0 mi North 5.8 mph - N/A   Clear
10:55 PM 35.6 °F 31.7 °F 30.2 °F 81% 30.30 in 10.0 mi NE 4.6 mph - N/A   Clear
11:15 PM 35.6 °F 32.8 °F 30.2 °F 81% 30.30 in 10.0 mi NE 3.5 mph - N/A   Clear
11:35 PM 35.6 °F 32.8 °F 30.2 °F 81% 30.30 in 10.0 mi NE 3.5 mph - N/A   Clear
11:55 PM 35.6 °F 32.8 °F 30.2 °F 81% 30.30 in 10.0 mi NE 3.5 mph - N/A   Clear